Home > Weather > Magdeburg > Past weeks

Flag for Germany Past Weather in Magdeburg, Saxony-Anhalt, Germany — Yesterday and Last 2 Weeks

Now
73 °F

Passing clouds.


Feels Like: 75 °F
Forecast: 61 / 84 °F
Wind: 7 mph from Southeast

Location: Braunschweig Wolfsburg

Current Time: Aug 24, 2016 at 10:53:28 AM

Latest Report: Aug 24, 2016 at 9:50 AM


Visibility: N/A

Pressure: 30.27 "Hg

Humidity: 74%

Dew Point: 64 °F

Location of MagdeburgLocation

Past Weather in Magdeburg — Graph

°F

Magdeburg Temperature Yesterday

Maximum temperature yesterday: 77 °F (at 6:20 PM)
Minimum temperature yesterday: 63 °F (at 6:50 AM)
Average temperature yesterday: 71 °F

High & Low Weather Summary for the Past Weeks

 TemperatureHumidityPressure
High81 °F (Aug 19, 4:20 PM)100% (Aug 12, 7:50 AM)30.33 "Hg (Aug 12, 7:50 AM)
Low46 °F (Aug 11, 6:50 AM)31% (Aug 18, 3:50 PM)29.80 "Hg (Aug 18, 3:50 PM)
Average65 °F65%30.09 "Hg
* Reported Aug 9 9:20 AM — Aug 24 9:20 AM, Magdeburg, Weather by CustomWeather, © 2016

Note: Actual official high and low records may vary slightly from our data, if they occured in-between our weather recording intervals... More about our weather records

Advertising

Magdeburg Weather History for the Previous 24 Hours

Scroll right to see more
 ConditionsComfort  
Time TempWeatherWind HumidityBarometerVisibility
9:20 AM
Wed, Aug 24
72 °FPassing clouds.5 mph78%30.27 "HgN/A
8:50 AM68 °FSunny.3 mph88%30.27 "Hg10 mi
8:20 AM66 °FSunny.3 mph88%30.27 "Hg10 mi
7:50 AM63 °FSunny.5 mph100%30.27 "Hg10 mi
7:20 AM61 °FClear.6 mph100%30.27 "Hg5 mi
6:50 AM59 °FClear.7 mph100%30.27 "Hg4 mi
6:20 AM59 °FClear.7 mph94%30.27 "Hg4 mi
7:50 PM
Tue, Aug 23
73 °FSunny.3 mph74%30.30 "Hg10 mi
7:20 PM75 °FPassing clouds.5 mph65%30.30 "HgN/A
6:50 PM75 °FPassing clouds.5 mph65%30.30 "HgN/A
6:20 PM77 °FPassing clouds.6 mph61%30.30 "HgN/A
5:50 PM75 °FPassing clouds.5 mph65%30.30 "HgN/A
5:20 PM75 °FScattered clouds.5 mph65%30.30 "HgN/A
4:50 PM75 °FOvercast.6 mph65%30.33 "HgN/A
4:20 PM73 °FPassing clouds.6 mph65%30.33 "HgN/A
3:50 PM73 °FOvercast.6 mph65%30.33 "HgN/A
3:20 PM75 °FOvercast.6 mph61%30.33 "HgN/A
2:50 PM73 °FOvercast.6 mph65%30.33 "HgN/A
2:20 PM73 °FOvercast.6 mph65%30.33 "HgN/A
1:50 PM73 °FOvercast.6 mph65%30.33 "HgN/A
1:20 PM72 °FSunny.6 mph69%30.33 "Hg10 mi
12:50 PM72 °FSunny.8 mph69%30.33 "Hg10 mi
12:20 PM70 °FSunny.6 mph69%30.33 "Hg10 mi
11:50 AM70 °FSunny.5 mph69%30.33 "Hg10 mi
11:20 AM70 °FSunny.6 mph69%30.33 "Hg10 mi
10:50 AM70 °FSunny.7 mph69%30.33 "Hg10 mi
10:20 AM68 °FSunny.8 mph73%30.33 "Hg10 mi
Weather by CustomWeather, © 2016

See weather overviewHow to use our weather pages